Flag for Greenland Weather past 2 weeks in Ittoqqortoormiit, Greenland

Now
39 °F

Passing clouds.


Feels Like: 39 °F
Forecast: 26 / 35 °F
Wind: 2 mph from Southeast

Location: Scoresbysund

Current Time: Sep 19, 2014 at 4:39:15 PM

Latest Report: Sep 19, 2014 at 4:00 PM


Visibility: 14 mi

Pressure: 30.00 "Hg

Humidity: 63%

Dew point: 28 °F

Location of IttoqqortoormiitLocation

Historic Weather in Ittoqqortoormiit — Graph

°F

Ittoqqortoormiit temperature yesterday

Maximum temperature yesterday: 41 °F (at 12:00 PM)
Minimum temperature yesterday: 33 °F (at 7:00 AM)
Average temperature yesterday: 37 °F

Past Weeks' High & Low Weather Summary

 TemperatureHumidityPressure
High48 °F (Sep 15, 1:00 PM)100% (Sep 5, 4:00 AM)30.34 "Hg (Sep 5, 4:00 AM)
Low32 °F (Sep 19, 8:00 AM)18% (Sep 13, 5:00 PM)29.12 "Hg (Sep 12, 6:00 PM)
Average39 °F73%29.80 "Hg
* Reported Sep 4 3:00 PM — Sep 19 3:00 PM, Ittoqqortoormiit, Weather by CustomWeather, © 2014

Note: Actual official high and low records may vary slightly from our data, if they occured in-between our weather recording intervals... More about our weather records

Advertising

Ittoqqortoormiit weather history for previous 24 hours

 ConditionsComfort  
Time TempWeatherWind HumidityBarometerVisibility
3:00 PM
Sep 19
38 °FPassing clouds.2 mph65%30.01 "Hg31 mi
2:00 PM39 °FPassing clouds.2 mph61%30.02 "Hg25 mi
1:00 PM39 °FSunny.2 mph59%30.02 "Hg25 mi
12:00 PM37 °FSunny.1 mph61%30.03 "Hg31 mi
11:00 AM39 °FSunny.1 mph57%30.03 "Hg31 mi
10:00 AM37 °FSunny.2 mph63%30.04 "Hg31 mi
9:00 AM36 °FSunny.2 mph50%30.04 "Hg31 mi
8:00 AM32 °FSunny.1 mph56%30.05 "Hg31 mi
7:00 AM33 °FSunny.1 mph54%30.05 "Hg31 mi
6:00 AM33 °FClear.2 mph55%30.06 "Hg31 mi
5:00 AM33 °FClear.1 mph55%30.06 "Hg31 mi
4:00 AM33 °FClear.7 mph55%30.07 "Hg31 mi
3:00 AM33 °FClear.6 mph59%30.08 "Hg31 mi
2:00 AM33 °FClear.3 mph56%30.09 "Hg31 mi
1:00 AM34 °FClear.3 mph54%30.10 "Hg31 mi
12:00 AM35 °FClear.1 mph56%30.11 "Hg31 mi
11:00 PM
Sep 18
36 °FClear.3 mph52%30.12 "Hg31 mi
10:00 PM35 °FClear.3 mph61%30.14 "Hg31 mi
9:00 PM36 °FClear.1 mph58%30.14 "Hg31 mi
8:00 PM37 °FClear.2 mph60%30.15 "Hg31 mi
7:00 PM39 °FSunny.5 mph53%30.15 "Hg31 mi
6:00 PM39 °FSunny.3 mph58%30.16 "Hg31 mi
Weather by CustomWeather, © 2014

See weather overviewHow to use our weather pages